Overview Statistics Trail Chart Weather Telemetry Raw packets
 

This is the latest recevied weather packets stored in our database for station/object K7FLA. If no packets are shown the sender has not sent any weather packets the latest 10 day(s).

<< 66 67 68 69 70 71 72 >>
Time Temp. Humidity Pressure Rain* Wind** Luminosity Snow
1788203000 33.89° C 24% 1096.1 hPa 0 mm - 774 W/m² -
1788202700 33.89° C 26% 1096.1 hPa 0 mm - 760 W/m² -
1788202395 33.89° C 24% 1096 hPa 0 mm - 769 W/m² -
1788202094 33.89° C 25% 1096.1 hPa 0 mm - 772 W/m² -
1788201790 33.89° C 24% 1096.3 hPa 0 mm - 774 W/m² -
1788201485 33.33° C 24% 1096 hPa 0 mm - 760 W/m² -
1788201184 33.33° C 23% 1096.3 hPa 0 mm - 755 W/m² -
1788200884 33.33° C 22% 1096.2 hPa 0 mm - 755 W/m² -
1788200584 33.33° C 23% 1096.1 hPa 0 mm - 738 W/m² -
1788200279 33.89° C 22% 1096 hPa 0 mm - 738 W/m² -
1788199975 33.89° C 21% 1096.2 hPa 0 mm - 728 W/m² -
1788199675 33.33° C 22% 1096.2 hPa 0 mm - 723 W/m² -
1788199369 32.78° C 23% 1096.2 hPa 0 mm - 713 W/m² -
1788199069 32.78° C 22% 1096 hPa 0 mm - 708 W/m² -
1788198766 32.78° C 24% 1096.2 hPa 0 mm - 697 W/m² -
1788198466 32.78° C 22% 1096 hPa 0 mm - 687 W/m² -
1788198162 32.78° C 25% 1096.1 hPa 0 mm - 676 W/m² -
1788197861 32.78° C 23% 1096.1 hPa 0 mm - 663 W/m² -
1788197555 32.78° C 25% 1096.1 hPa 0 mm - 654 W/m² -
1788197250 32.78° C 25% 1096.1 hPa 0 mm - 641 W/m² -
1788196946 33.33° C 26% 1096.2 hPa 0 mm - 631 W/m² -
1788196640 32.78° C 28% 1095.9 hPa 0 mm - 615 W/m² -
1788196338 31.67° C 27% 1095.9 hPa 0 mm - 600 W/m² -
1788196034 31.67° C 26% 1096 hPa 0 mm - 587 W/m² -
1788195725 31.67° C 28% 1095.9 hPa 0 mm - 571 W/m² -

* Rain latest hour (hover to see other rain measurements)
** Current wind speed in m/s (hover to see current wind gust speed)